sat.trackr.live / text

‹ back to catalog

BEIDOU-2 IGSO-1 (C06)

NORAD 36828 · 2010-036A

PAYLOAD ACTIVE UNKNOWN

§ Identity

Operator
Country
PRC
Launch date
2010-07-31
Launch site
XICLF
Launch vehicle
Mass (kg)
RCS (m²)
31.62

Purposes: comms, nav

External: N2YO · Heavens-Above · Gunter

§ Orbital elements

Epoch: 2026-09-13T16:04:22.733184Z

Period
1,435.84 min
Inclination
54.3037°
Eccentricity
0.0058541
Mean motion
1.00289463 rev/d
Perigee alt
35,534.8 km
Apogee alt
36,028.4 km
Semi-major
42,159.8 km
B*
0.0000e+0
RAAN
162.1610°
Arg perigee
217.4777°
Mean anomaly
320.7749°
Rev number
5,898

§ Raw data

BEIDOU-2 IGSO-1 (C06)1 36828U 10036A   26256.66970756 -.00000130  00000+0  00000+0 0  99972 36828  54.3037 162.1610 0058541 217.4777 320.7749  1.00289463 58981

JSON: /api/v1/satellites/36828 · /tle

For live sub-satellite position, see the globe view (requires WebGL).

§ Visibility from observer

Set your observer location to see the next 7 days of passes ≥ 10°. The values pass through the URL so the page stays shareable.

No JS? Fill the form by hand. The geolocation button needs JavaScript.